Weather History for Alexandria, LA

Change the Weather History Date:

Saturday, February 19, 2011

  Actual Average Record
Temperature  
Mean Temperature 63 °F 53 °F  
Max Temperature 78 °F 64 °F 82 °F (1961)
Min Temperature 48 °F 42 °F 19 °F (1910)
Degree Days  
Heating Degree Days 2 13  
Month to date heating degree days 372 272  
Since 1 July heating degree days 1746 1563  
Growing Degree Days 13 (Base 50)    
Moisture  
Dew Point 53 °F    
Average Humidity 73    
Maximum Humidity 100    
Minimum Humidity 45    
Precipitation  
Precipitation 0.00 in 0.18 in 2.46 in (1938)
Month to date precipitation 1.92 3.01  
Year to date precipitation 5.20 8.23  
Snow  
Snow 0.00 in - T in (1942)
Month to date snowfall 0.0  
Since 1 July snowfall 0.0  
Snow Depth 0.00 in    
Sea Level Pressure  
Sea Level Pressure 30.18 in    
Wind  
Wind Speed 5 mph (SSE)    
Max Wind Speed 14 mph    
Max Gust Speed 20 mph    
Visibility 6 miles    
Events Fog    
T = Trace of Precipitation, MM = Missing Value Source: NWS Daily Summary

Daily Weather History Graph

Daily Weather History Graph

Search for Another Location

Airport:

Trip Planner

Search our weather history database for the weather conditions in past years. The results will help you decide how hot, cold, wet, or windy it might be!

Date:

Astronomy

Feb. 19, 2011 Rise Set
Actual Time 6:48 AM CST 6:00 PM CST
Civil Twilight 6:23 AM CST 6:25 PM CST
Nautical Twilight 5:55 AM CST 6:53 PM CST
Astronomical Twilight 5:26 AM CST 7:21 PM CST
Moon 7:55 PM CST (2/19) 7:20 AM CST (2/19)
Length of Visible Light 12h 01m
Length of Day
11h 12m
Full, 97% of the Moon is Illuminated
Feb 19
Full
Feb 24
Last Quarter
Mar 4
New
Mar 12
First Quarter
Mar 19
Full

Hourly Weather History & Observations

Time (CST) Temp. Dew Point Humidity Pressure Visibility Wind Dir Wind Speed Gust Speed Precip Events Conditions
12:53 AM 57.0 °F 54.0 °F 89% 30.19 in 9.0 mi Calm Calm - N/A   Clear
1:53 AM 55.9 °F 55.9 °F 100% 30.18 in 10.0 mi SE 3.5 mph - N/A   Clear
2:53 AM 55.0 °F 54.0 °F 96% 30.18 in 6.0 mi SE 4.6 mph - N/A   Clear
3:35 AM 53.6 °F 53.6 °F 100% 30.16 in 1.2 mi Calm Calm - N/A   Clear
3:42 AM 53.6 °F 51.8 °F 94% 30.16 in 10.0 mi Calm Calm - N/A   Clear
3:53 AM 53.1 °F 51.1 °F 93% 30.17 in 10.0 mi Calm Calm - N/A   Clear
3:59 AM 53.6 °F 51.8 °F 94% 30.16 in 2.5 mi Calm Calm - N/A   Partly Cloudy
4:01 AM 53.6 °F 51.8 °F 94% 30.16 in 1.0 mi Calm Calm - N/A   Mist
4:06 AM 53.6 °F 51.8 °F 94% 30.16 in 0.2 mi Calm Calm - N/A Fog Fog
4:18 AM 53.6 °F 51.8 °F 94% 30.16 in 0.5 mi Calm Calm - N/A Fog Fog
4:29 AM 51.8 °F 50.0 °F 94% 30.17 in 2.0 mi Calm Calm - N/A   Mostly Cloudy
4:34 AM 51.8 °F 50.0 °F 94% 30.17 in 6.0 mi Calm Calm - N/A   Scattered Clouds
4:53 AM 51.1 °F 50.0 °F 96% 30.19 in 3.0 mi Calm Calm - N/A   Mostly Cloudy
5:18 AM 50.0 °F 48.2 °F 94% 30.18 in 7.0 mi Calm Calm - N/A   Scattered Clouds
5:44 AM 50.0 °F 48.2 °F 94% 30.19 in 2.5 mi Calm Calm - N/A   Mostly Cloudy
5:46 AM 48.2 °F 48.2 °F 100% 30.19 in 0.8 mi Calm Calm - N/A   Mist
5:53 AM 50.0 °F 48.2 °F 94% 30.19 in 0.2 mi Calm Calm - N/A Fog Fog
6:13 AM 50.0 °F 48.2 °F 94% 30.20 in 1.0 mi Calm Calm - N/A   Overcast
6:16 AM 48.2 °F 48.2 °F 100% 30.20 in 3.0 mi Calm Calm - N/A   Overcast
6:19 AM 48.2 °F 46.4 °F 93% 30.20 in 1.5 mi Calm Calm - N/A   Overcast
6:29 AM 48.2 °F 46.4 °F 93% 30.20 in 0.5 mi Calm Calm - N/A Fog Fog
6:53 AM 48.0 °F 48.0 °F 100% 30.22 in 0.2 mi Calm Calm - N/A Fog Fog
7:53 AM 51.1 °F 51.1 °F 100% 30.24 in 0.2 mi Calm Calm - N/A Fog Fog
8:00 AM 51.8 °F 51.8 °F 100% 30.23 in 1.0 mi Calm Calm - N/A   Overcast
8:08 AM 51.8 °F 51.8 °F 100% 30.23 in 3.0 mi Calm Calm - N/A   Overcast
8:15 AM 53.6 °F 53.6 °F 100% 30.23 in 4.0 mi Calm Calm - N/A   Overcast
8:53 AM 57.9 °F 55.9 °F 93% 30.25 in 9.0 mi ESE 3.5 mph - N/A   Mostly Cloudy
9:53 AM 66.0 °F 57.9 °F 75% 30.26 in 10.0 mi Calm Calm - N/A   Mostly Cloudy
10:53 AM 71.1 °F 59.0 °F 66% 30.25 in 10.0 mi SSE 5.8 mph - N/A   Mostly Cloudy
11:53 AM 73.9 °F 55.9 °F 53% 30.22 in 10.0 mi South 9.2 mph 16.1 mph N/A   Mostly Cloudy
12:53 PM 78.1 °F 55.0 °F 45% 30.18 in 10.0 mi South 12.7 mph 18.4 mph N/A   Mostly Cloudy
1:53 PM 75.2 °F 53.6 °F 47% 30.14 in 10.0 mi South 8.1 mph - N/A   Overcast
2:53 PM 77.0 °F 55.0 °F 47% 30.12 in 10.0 mi South 11.5 mph - N/A   Overcast
3:53 PM 75.9 °F 54.0 °F 46% 30.11 in 10.0 mi South 10.4 mph - N/A   Overcast
4:53 PM 73.9 °F 55.9 °F 53% 30.10 in 10.0 mi South 8.1 mph 17.3 mph N/A   Overcast
5:53 PM 72.0 °F 57.0 °F 59% 30.11 in 10.0 mi South 6.9 mph - N/A   Overcast
6:53 PM 70.0 °F 57.9 °F 65% 30.13 in 10.0 mi SSE 6.9 mph - N/A   Mostly Cloudy
7:53 PM 64.9 °F 57.0 °F 75% 30.13 in 10.0 mi SSE 5.8 mph - N/A   Clear
8:53 PM 64.0 °F 57.0 °F 78% 30.12 in 10.0 mi SSE 5.8 mph - N/A   Clear
9:53 PM 62.1 °F 57.0 °F 84% 30.13 in 10.0 mi SSE 3.5 mph - N/A   Clear
10:53 PM 61.0 °F 57.0 °F 87% 30.12 in 10.0 mi South 3.5 mph - N/A   Mostly Cloudy
11:53 PM 63.0 °F 57.9 °F 84% 30.11 in 10.0 mi South 5.8 mph - N/A   Overcast